User: anonymous   Login
Location: Arbon
(43.0005°N, 0.7472°E)
Time: 15:30:57
(UTC+00:00)
Language:

Transit 2A Rocket - Orbit

View from above orbital plane
View from above orbital plane
View from above satellite
View from above satellite

Ground track
Ground track

The orbit data is extracted from the following two-line orbital elements,

1    47U 60007C   20329.49034596  .00000090  00000-0  45001-4 0  9993
2    47  66.6660  87.0528 0228911 188.0434 171.6978 14.42114284158198
Epoch (UTC): 24 November 2020 11:46:05
Eccentricity: 0.0228911
inclination: 66.6660°
perigee height: 588 km
apogee height: 915 km
right ascension of ascending node: 87.0528°
argument of perigee: 188.0434°
revolutions per day: 14.42114284
mean anomaly at epoch: 171.6978°
orbit number at epoch: 15819

The dashed part of the orbit path shows where the satellite is in the earth's shadow,  

DLR